Effective Sunday, March 17, 2024, the National Weather Service National Data Buoy Center will discontinue its Dial-A-Buoy Interactive Voice Response system. For more information, see Service Change Notice 24-06 (PDF).

Station MRYA2 - Mary Island, AK Image indicating link to RSS feed of recent meteorological observations for station MRYA2


Conditions at MRYA2 as of
(10:02 am AKST)
1902 GMT on 03/03/2024:
     

Click on the graph icon in the table below to see a time series plot of the last five days of that observation.

5-day plot - Wind Direction Wind Direction (WDIR):ENE ( 60 deg true )
5-day plot - Wind Speed Wind Speed (WSPD): 2.9 kts
5-day plot - Wind Gust Wind Gust (GST): 7.0 kts
5-day plot - Atmospheric Pressure Atmospheric Pressure (PRES):29.80 in
5-day plot - Air Temperature Air Temperature (ATMP): 29.7 °F
5-day plot - Dew Point Dew Point (DEWP): 13.3 °F
5-day plot - Wind Chill Wind Chill (CHILL): 26.2 °F
5-day plot - Wind Speed at 10 Meters Wind Speed at 10 meters (WSPD10M): 3.9 kts
5-day plot - Wind Speed at 20 Meters Wind Speed at 20 meters (WSPD20M): 3.9 kts
5-day plot -  Wind Speed, Wind Gust and Atmospheric Pressure Combined plot of Wind Speed, Gust, and Air Pressure
Previous observations
TIME
(AKST)
5-day plot - Wind Direction
WDIR
 
5-day plot - Wind Speed
WSPD
kts
5-day plot - Wind Gust
GST
kts
5-day plot - Wave Height
WVHT
ft
5-day plot - Dominant Wave Period
DPD
sec
5-day plot - Average Wave Period
APD
sec
5-day plot - Mean Wave Direction
MWD
 
5-day plot - Atmospheric Pressure
PRES
in
5-day plot - Pressure Tendency
PTDY
in
5-day plot - Air Temperature
ATMP
°F
5-day plot - Water Temperature
WTMP
°F
5-day plot - Dew Point
DEWP
°F
5-day plot - Salinity
SAL
psu
5-day plot - Visibility
VIS
nmi
5-day plot - Tide (above MLLW)
TIDE
ft
2024-03-03 09:52 amENE 2.9 8.0----29.80- 29.5- 13.5---
2024-03-03 09:42 am NE 2.9 8.0----29.80- 29.5- 13.6---
2024-03-03 09:32 amENE 2.9 11.1----29.80- 29.1- 13.6---
2024-03-03 09:22 amENE 4.1 8.9----29.80- 28.9- 13.8---
2024-03-03 09:12 amENE 4.1 11.1----29.79- 29.1- 13.8---
2024-03-03 09:02 amENE 4.1 9.9----29.79- 28.9- 14.2---
2024-03-03 08:52 am NE 4.1 9.9----29.78- 28.8- 14.0---
2024-03-03 08:42 am NE 4.1 9.9----29.78- 28.9- 15.4---
2024-03-03 08:32 am NE 5.1 11.1----29.78- 28.8- 14.9---
2024-03-03 08:22 amENE 4.1 9.9----29.77- 28.8- 14.5---
2024-03-03 08:12 amENE 4.1 9.9----29.77- 28.9- 14.5---
2024-03-03 08:02 amENE 4.1 11.1----29.76- 28.9- 14.7---
2024-03-03 07:52 amENE 4.1 12.0----29.76- 28.8- 15.1---
2024-03-03 07:42 amENE 4.1 12.0----29.76- 28.6- 14.5---
2024-03-03 07:32 am NE 4.1 8.9----29.75- 28.6- 14.7---
2024-03-03 07:22 am NE 4.1 9.9----29.75- 28.6- 14.7---
2024-03-03 07:12 am NE 4.1 9.9----29.75- 28.6- 13.8---
2024-03-03 07:02 amENE 4.1 11.1----29.75- 28.8- 15.4---
2024-03-03 06:52 am E 5.1 13.0----29.74- 28.8- 15.3---
2024-03-03 06:42 am NE 5.1 12.0----29.74- 28.8- 15.6---
2024-03-03 06:32 am NE 4.1 9.9----29.73- 28.8- 15.6---
2024-03-03 06:22 am NE 4.1 8.9----29.73- 28.8- 15.8---
2024-03-03 06:12 am NE 6.0 14.0----29.73- 28.8- 15.8---
2024-03-03 06:02 am NE 5.1 11.1----29.73- 28.8- 14.9---
2024-03-03 05:52 am NE 4.1 9.9----29.72- 28.9- 15.1---
2024-03-03 05:42 am NE 4.1 9.9----29.72- 29.1- 15.4---
2024-03-03 05:32 am NE 4.1 11.1----29.72- 29.1- 15.4---
2024-03-03 05:22 am NE 4.1 8.9----29.72- 28.9- 14.9---
2024-03-03 05:12 am NE 5.1 12.0----29.72- 28.9- 14.7---
2024-03-03 05:02 am NE 4.1 12.0----29.71- 29.1- 15.3---
2024-03-03 04:52 amENE 2.9 11.1----29.71- 29.1- 14.5---
2024-03-03 04:42 amENE 4.1 11.1----29.71- 29.3- 15.3---
2024-03-03 04:32 am NE 2.9 11.1----29.70- 29.5- 15.3---
2024-03-03 04:22 am NE 4.1 8.9----29.70- 29.7- 16.5---
2024-03-03 04:12 amENE 4.1 9.9----29.70- 29.7- 15.3---
2024-03-03 04:02 am NE 4.1 8.9----29.69- 29.7- 16.2---
2024-03-03 03:52 am NE 5.1 11.1----29.69- 29.8- 16.5---
2024-03-03 03:42 am NE 4.1 11.1----29.69- 30.0- 16.2---
2024-03-03 03:32 am N 5.1 15.0----29.69- 30.2- 16.9---
2024-03-03 03:22 am N 7.0 19.0----29.68- 30.2- 17.1---
2024-03-03 03:12 am N 6.0 18.1----29.68- 29.8- 16.5---
2024-03-03 03:02 am N 7.0 14.0----29.68- 30.2- 17.2---
2024-03-03 02:52 amNNE 6.0 14.0----29.68- 30.4- 18.3---
2024-03-03 02:42 am N 8.0 15.9----29.68- 30.4- 19.2---
2024-03-03 02:32 amNNE 5.1 15.9----29.67- 30.4- 16.0---
2024-03-03 02:22 am N 5.1 11.1----29.67- 30.4- 16.9---
2024-03-03 02:12 am N 4.1 9.9----29.67- 30.4- 15.8---
2024-03-03 02:02 amNNE 5.1 9.9----29.67- 30.4- 16.0---
2024-03-03 01:52 amNNE 6.0 12.0----29.67- 30.4- 15.8---
2024-03-03 01:42 amNNE 6.0 12.0----29.67- 30.7- 16.3---
2024-03-03 01:32 am N 6.0 15.0----29.66- 30.6- 15.8---
2024-03-03 01:22 amNNE 6.0 11.1----29.66- 30.7- 16.2---
2024-03-03 01:12 amNNE 6.0 13.0----29.66- 30.7- 16.2---
2024-03-03 01:02 amNNE 5.1 11.1----29.66- 30.7- 16.0---
2024-03-03 12:52 amNNE 5.1 9.9----29.66- 30.7- 15.8---
2024-03-03 12:42 am N 5.1 14.0----29.66- 30.9- 16.5---
2024-03-03 12:32 amNNE 4.1 9.9----29.65- 30.9- 16.2---
2024-03-03 12:22 amNNE 4.1 8.0----29.65- 31.1- 16.9---
2024-03-03 12:12 amNNE 2.9 8.0----29.65- 31.1- 16.3---
2024-03-03 12:02 amENE 4.1 12.0----29.64- 31.1- 17.6---
2024-03-02 11:52 pmENE 4.1 11.1----29.64- 31.3- 17.2---
2024-03-02 11:42 pm NE 4.1 12.0----29.64- 31.6- 18.3---
2024-03-02 11:32 pmENE 4.1 11.1----29.64- 31.5- 17.6---
2024-03-02 11:22 pmENE 2.9 8.0----29.63- 31.6- 17.1---
2024-03-02 11:12 pm NE 4.1 11.1----29.63- 31.8- 17.4---
2024-03-02 11:02 pm NE 4.1 11.1----29.62- 31.8- 18.3---
2024-03-02 10:52 pm NE 5.1 12.0----29.62- 31.8- 17.4---
2024-03-02 10:42 pmENE 4.1 15.0----29.62- 32.0- 18.1---
2024-03-02 10:32 pm NE 5.1 11.1----29.62- 31.8- 17.4---
2024-03-02 10:22 pm NE 4.1 8.9----29.62- 32.0- 18.3---
2024-03-02 10:12 pmENE 4.1 9.9----29.61- 32.0- 18.0---
2024-03-02 10:02 pm NE 4.1 9.9----29.61- 32.0- 18.0---
2024-03-02 09:52 pm NE 4.1 9.9----29.60- 32.0- 18.0---
2024-03-02 09:42 pm NE 2.9 9.9----29.60- 32.0- 18.0---
2024-03-02 09:32 pm NE 4.1 9.9----29.60- 32.2- 18.3---
2024-03-02 09:22 pmENE 4.1 9.9----29.59- 32.2- 18.3---
2024-03-02 09:12 pmENE 4.1 11.1----29.59- 32.4- 18.5---
2024-03-02 09:02 pmENE 4.1 9.9----29.59- 32.4- 18.7---
2024-03-02 08:52 pmENE 4.1 9.9----29.58- 32.4- 19.0---
2024-03-02 08:42 pmENE 4.1 12.0----29.58- 32.5- 19.0---
2024-03-02 08:32 pm E 6.0 12.0----29.58- 32.5- 18.9---
2024-03-02 08:22 pmENE 4.1 11.1----29.57- 32.9- 19.2---
2024-03-02 08:12 pmENE 4.1 11.1----29.57- 33.1- 19.4---
2024-03-02 08:02 pmENE 4.1 9.9----29.57- 33.1- 18.9---
2024-03-02 07:52 pm E 5.1 11.1----29.56- 33.3- 20.1---
2024-03-02 07:42 pm E 6.0 13.0----29.56- 33.3- 19.2---
2024-03-02 07:32 pm E 5.1 12.0----29.56- 33.4- 19.4---
2024-03-02 07:22 pm E 5.1 13.0----29.55- 33.6- 19.9---
2024-03-02 07:12 pm E 5.1 13.0----29.55- 33.8- 20.1---
2024-03-02 07:02 pmENE 5.1 12.0----29.54- 34.0- 19.9---
2024-03-02 06:52 pm E 6.0 13.0----29.54- 34.2- 20.3---
2024-03-02 06:42 pmENE 5.1 11.1----29.54- 34.3- 20.3---
2024-03-02 06:32 pmENE 4.1 13.0----29.54- 34.7- 20.7---
2024-03-02 06:22 pmENE 4.1 13.0----29.53- 34.9- 21.0---
2024-03-02 06:12 pmENE 5.1 12.0----29.53- 35.1- 21.2---
2024-03-02 06:02 pmENE 5.1 15.9----29.52- 35.4- 21.4---
2024-03-02 05:52 pmENE 5.1 12.0----29.52- 35.6- 21.7---
2024-03-02 05:42 pmENE 5.1 13.0----29.52- 35.8- 22.1---
2024-03-02 05:32 pmENE 5.1 14.0----29.52- 36.0- 22.5---
2024-03-02 05:22 pmENE 4.1 11.1----29.51- 36.1- 22.6---
2024-03-02 05:12 pmENE 4.1 8.9----29.51- 36.3- 21.7---
2024-03-02 05:02 pm NE 4.1 9.9----29.51- 36.9- 22.3---
2024-03-02 04:52 pm NE 4.1 8.9----29.51- 37.2- 22.3---
2024-03-02 04:42 pm NE 4.1 11.1----29.50- 37.2- 21.2---
2024-03-02 04:32 pmNNE 5.1 9.9----29.50- 37.4- 21.4---
2024-03-02 04:22 pmNNE 5.1 9.9----29.50- 37.4- 21.2---
2024-03-02 04:12 pm N 5.1 9.9----29.50- 37.6- 21.7---
2024-03-02 04:02 pm N 5.1 9.9----29.50- 37.8- 22.1---
2024-03-02 03:52 pmNNE 4.1 8.0----29.50- 37.8- 23.4---
2024-03-02 03:42 pmNNW 7.0 13.0----29.50- 37.6- 22.5---
2024-03-02 03:32 pmNNW 8.0 13.0----29.49- 37.6- 23.0---
2024-03-02 03:22 pmNNW 8.9 13.0----29.49- 37.6- 23.5---
2024-03-02 03:12 pmNNW 8.9 13.0----29.49- 37.4- 23.4---
2024-03-02 02:52 pmNNW 8.9 17.1----29.49- 37.4- 23.2---
2024-03-02 02:42 pm N 8.0 14.0----29.49- 37.6- 23.5---
2024-03-02 02:32 pmNNW 9.9 15.0----29.49- 37.4- 23.5---
2024-03-02 02:22 pmNNW 9.9 15.0----29.50- 37.4- 23.4---
2024-03-02 02:12 pmNNW 9.9 13.0----29.50- 37.4- 23.4---
2024-03-02 02:02 pmNNW 9.9 15.0----29.50- 37.4- 23.7---
2024-03-02 01:52 pmNNW 9.9 15.9----29.50- 37.2- 23.5---
2024-03-02 01:42 pmNNW 9.9 15.0----29.50- 37.2- 23.5---
2024-03-02 01:32 pmNNW 9.9 17.1----29.50- 37.2- 23.2---
2024-03-02 01:22 pmNNW 8.9 15.0----29.50- 37.0- 23.5---
2024-03-02 01:12 pmNNW 9.9 15.9----29.50- 37.0- 24.4---
2024-03-02 01:02 pmNNW 9.9 15.0----29.50- 36.9- 24.1---
2024-03-02 12:52 pmNNW 9.9 14.0----29.49- 36.7- 23.7---
2024-03-02 12:42 pmNNW 9.9 14.0----29.49- 36.5- 23.7---
2024-03-02 12:32 pm N 8.9 14.0----29.49- 36.5- 23.7---
2024-03-02 12:22 pmNNW 11.1 15.0----29.49- 36.3- 23.9---
2024-03-02 12:12 pmNNW 11.1 17.1----29.49- 36.3- 23.9---
2024-03-02 12:02 pmNNW 9.9 15.0----29.49- 36.1- 23.4---
2024-03-02 11:52 amNNW 9.9 15.0----29.49- 36.1- 23.7---
2024-03-02 11:42 amNNW 8.9 15.0----29.49- 36.3- 23.9---
2024-03-02 11:32 amNNW 9.9 14.0----29.49- 36.1- 24.1---
2024-03-02 11:22 amNNW 9.9 15.9----29.49- 36.0- 23.5---
2024-03-02 11:12 amNNW 8.0 14.0----29.49- 36.1- 23.7---
2024-03-02 11:02 amNNW 8.0 14.0----29.49- 36.1- 23.9---
2024-03-02 10:52 am N 6.0 11.1----29.49- 36.1- 21.9---
2024-03-02 10:42 am N 6.0 13.0----29.49- 35.8- 21.6---
2024-03-02 10:32 am N 6.0 15.9----29.49- 35.6- 21.7---
2024-03-02 10:22 am N 6.0 13.0----29.49- 35.6- 22.3---
2024-03-02 10:12 am N 6.0 11.1----29.49- 35.4- 21.7---
2024-03-02 10:02 am N 7.0 14.0----29.49- 35.4- 22.1---
2024-03-02 09:52 am N 6.0 11.1----29.49- 35.2- 22.3---